Location: Taupo
(38.6830°S, 176.0830°E)
Time: 22:57:22
(UTC+13:00)

Cosmos 1655 Rocket - Pass Details

Date: 24 January 2019
Orbit: 971 x 1005 km, 82.9° (Epoch: 17 February)

Event Time Altitude Azimuth Distance (km) Brightness Sun altitude
Rises 20:56:45 0° 353° (N) 3,698 6.8 -4.2°
Reaches altitude 10° 20:59:16 10° 352° (N) 2,752 6.2 -4.6°
Maximum altitude 21:05:36 84° 264° (W) 1,004 4.2 -5.7°
Drops below altitude 10° 21:11:58 10° 174° (S) 2,762 6.7 -6.8°
Sets 21:14:30 0° 173° (S) 3,712 7.4 -7.2°
